AAL1 KJFK-KLAX

Flight info

Callsign AAL1
Flight time N/A
Altitude 32000
Route RBV Q430 AIR J80 ZANDR KI60S HEVAN ENL/N0455F340 SGF FTI INW OATES CHILY HIPPI GABBL HLYWD1
Aircraft A321/M-SDE3FGHIRWY/LB1

Departure

Time 2026-05-09 12:59
Airport John F. Kennedy International Airport (KJFK)

Arrival

Time N/A
Airport Los Angeles International Airport (KLAX)
Time Latitude Longitude Altitude Speed Heading
2026-05-09 11:43 40.64709 -73.79182 27 ft 0 kts
2026-05-09 12:40 40.64696 -73.79184 23 ft 3 kts
2026-05-09 12:41 40.64677 -73.79188 25 ft 3 kts
2026-05-09 12:41 40.64659 -73.79192 25 ft 3 kts 356°
2026-05-09 12:41 40.64644 -73.79186 26 ft 0 kts 320°
2026-05-09 12:43 40.64653 -73.79198 24 ft 4 kts 308°
2026-05-09 12:43 40.64642 -73.79214 23 ft 3 kts 220°
2026-05-09 12:44 40.64626 -73.79232 25 ft 5 kts 221°
2026-05-09 12:44 40.64604 -73.79294 23 ft 11 kts 264°
2026-05-09 12:44 40.64616 -73.79396 23 ft 11 kts 275°
2026-05-09 12:44 40.64599 -73.79492 25 ft 10 kts 229°
2026-05-09 12:45 40.64533 -73.79507 24 ft 10 kts 175°
2026-05-09 12:45 40.64457 -73.79499 24 ft 12 kts 175°
2026-05-09 12:45 40.64374 -73.79490 24 ft 12 kts 180°
2026-05-09 12:45 40.64284 -73.79496 24 ft 13 kts 184°
2026-05-09 12:46 40.64174 -73.79505 24 ft 18 kts 183°
2026-05-09 12:46 40.64054 -73.79453 22 ft 20 kts 130°
2026-05-09 12:46 40.63975 -73.79293 20 ft 22 kts 121°
2026-05-09 12:46 40.63894 -73.79111 22 ft 23 kts 121°
2026-05-09 12:47 40.63813 -73.78931 24 ft 23 kts 121°
2026-05-09 12:47 40.63730 -73.78749 29 ft 25 kts 120°
2026-05-09 12:47 40.63630 -73.78525 29 ft 30 kts 121°
2026-05-09 12:47 40.63522 -73.78290 26 ft 30 kts 121°
2026-05-09 12:48 40.63422 -73.78074 25 ft 12 kts 119°
2026-05-09 12:48 40.63405 -73.77968 23 ft 12 kts 84°
2026-05-09 12:48 40.63451 -73.77873 24 ft 14 kts 45°
2026-05-09 12:48 40.63540 -73.77801 21 ft 17 kts 29°
2026-05-09 12:49 40.63612 -73.77744 20 ft 19 kts 31°
2026-05-09 12:49 40.63670 -73.77696 20 ft 0 kts 36°
2026-05-09 12:49 40.63663 -73.77619 21 ft 12 kts 91°
2026-05-09 12:49 40.63698 -73.77559 19 ft 14 kts 30°
2026-05-09 12:50 40.63846 -73.77442 19 ft 22 kts 31°
2026-05-09 12:50 40.63943 -73.77365 21 ft 26 kts 30°
2026-05-09 12:50 40.64102 -73.77242 24 ft 26 kts 30°
2026-05-09 12:50 40.64144 -73.77209 27 ft 1 kts 30°
2026-05-09 12:51 40.64149 -73.77206 27 ft 1 kts 30°
2026-05-09 12:51 40.64157 -73.77200 25 ft 2 kts 30°
2026-05-09 12:51 40.64160 -73.77197 26 ft 0 kts 30°
2026-05-09 12:53 40.64180 -73.77182 25 ft 12 kts 30°
2026-05-09 12:54 40.64306 -73.77082 23 ft 24 kts 31°
2026-05-09 12:54 40.64452 -73.76992 19 ft 22 kts
2026-05-09 12:54 40.64575 -73.76934 19 ft 18 kts 32°
2026-05-09 12:54 40.64683 -73.76848 18 ft 18 kts 28°
2026-05-09 12:55 40.64792 -73.76770 19 ft 17 kts 29°
2026-05-09 12:55 40.64886 -73.76692 23 ft 15 kts 32°
2026-05-09 12:55 40.64978 -73.76616 21 ft 16 kts 31°
2026-05-09 12:55 40.65068 -73.76546 21 ft 7 kts 31°
2026-05-09 12:56 40.65102 -73.76506 23 ft 6 kts 57°
2026-05-09 12:56 40.65095 -73.76466 22 ft 4 kts 107°
2026-05-09 12:56 40.65087 -73.76447 23 ft 0 kts 123°
2026-05-09 12:57 40.65082 -73.76437 23 ft 6 kts 123°
2026-05-09 12:58 40.65019 -73.76370 22 ft 15 kts 186°
2026-05-09 12:58 40.64796 -73.76533 22 ft 70 kts 212°
2026-05-09 12:58 40.64191 -73.77005 23 ft 130 kts 211°
2026-05-09 12:58 40.63264 -73.77721 42 ft 176 kts 208°
2026-05-09 12:59 40.62210 -73.78549 751 ft 172 kts 210°
2026-05-09 12:59 40.61235 -73.79357 1688 ft 159 kts 214°
2026-05-09 12:59 40.60337 -73.80129 2397 ft 152 kts 216°
2026-05-09 12:59 40.59477 -73.80904 2886 ft 148 kts 218°
2026-05-09 13:00 40.58641 -73.81689 3354 ft 148 kts 216°
2026-05-09 13:00 40.57744 -73.82385 3776 ft 152 kts 213°
2026-05-09 13:00 40.56828 -73.83086 4203 ft 153 kts 214°
2026-05-09 13:00 40.55916 -73.83823 4628 ft 155 kts 213°
2026-05-09 13:01 40.54958 -73.84518 5031 ft 158 kts 214°
2026-05-09 13:01 40.54057 -73.85334 5465 ft 157 kts 217°
2026-05-09 13:01 40.53145 -73.86132 5918 ft 158 kts 213°
2026-05-09 13:01 40.52167 -73.86899 6168 ft 171 kts 212°
2026-05-09 13:02 40.51104 -73.87694 6461 ft 180 kts 211°
2026-05-09 13:02 40.49988 -73.88493 6822 ft 185 kts 210°
2026-05-09 13:02 40.48837 -73.89280 7215 ft 188 kts 209°
2026-05-09 13:02 40.47663 -73.90051 7634 ft 189 kts 209°
2026-05-09 13:03 40.46490 -73.90828 8088 ft 189 kts 209°
2026-05-09 13:03 40.45307 -73.91641 8426 ft 197 kts 210°
2026-05-09 13:03 40.44065 -73.92556 8630 ft 213 kts 215°
2026-05-09 13:03 40.43046 -73.94026 8811 ft 228 kts 238°
2026-05-09 13:04 40.42248 -73.95932 8958 ft 248 kts 240°
2026-05-09 13:04 40.41432 -73.97972 9373 ft 256 kts 240°
2026-05-09 13:04 40.40605 -74.00055 9947 ft 258 kts 240°
2026-05-09 13:04 40.39750 -74.02190 10218 ft 273 kts 240°
2026-05-09 13:05 40.38830 -74.04464 10342 ft 291 kts 240°
2026-05-09 13:05 40.37858 -74.06850 10464 ft 309 kts 240°
2026-05-09 13:05 40.36823 -74.09383 10721 ft 320 kts 240°
2026-05-09 13:05 40.35764 -74.11975 11212 ft 324 kts 240°
2026-05-09 13:06 40.34695 -74.14585 11754 ft 326 kts 241°
2026-05-09 13:06 40.33614 -74.17214 12310 ft 328 kts 241°
2026-05-09 13:06 40.32526 -74.19853 12865 ft 330 kts 241°
2026-05-09 13:06 40.31430 -74.22512 13426 ft 333 kts 242°
2026-05-09 13:07 40.30325 -74.25192 13951 ft 335 kts 242°
2026-05-09 13:07 40.29213 -74.27883 14469 ft 336 kts 242°
2026-05-09 13:07 40.28096 -74.30581 14982 ft 337 kts 242°
2026-05-09 13:07 40.26974 -74.33281 15485 ft 338 kts 242°
2026-05-09 13:08 40.25847 -74.35997 16002 ft 340 kts 242°
2026-05-09 13:08 40.24719 -74.38719 16536 ft 341 kts 242°
2026-05-09 13:08 40.23585 -74.41452 17044 ft 342 kts 243°
2026-05-09 13:08 40.22448 -74.44192 17541 ft 344 kts 243°
2026-05-09 13:09 40.21305 -74.46952 18049 ft 345 kts 244°
2026-05-09 13:09 40.20406 -74.49852 18493 ft 345 kts 254°
2026-05-09 13:09 40.19964 -74.52945 18899 ft 348 kts 263°
2026-05-09 13:09 40.19729 -74.56096 19322 ft 350 kts 263°
2026-05-09 13:10 40.19487 -74.59271 19737 ft 352 kts 263°
2026-05-09 13:10 40.19235 -74.62461 20146 ft 354 kts 263°